Theta_e
296 289 287 287 291 292 292 292 293 293 292 291 289 288 288 288 289 292 293 291 292 290 289 291 291 291 293 294 295 296 296 294 294 294 294 295 296 297 297 297 297 297 298 300 299 298 299 299 299 298 298 297 296 295 294 294 293 293 293 292 292 292 292 292 292 291 291 290 288 288 289 289 289 289 289 288 288 288 288 289 289 288 288 288 287 287
296 287 288 292 294 294 293 293 293 292 292 291 290 288 289 287 288 293 294 292 290 291 287 290 291 291 292 294 295 296 293 293 294 294 294 295 296 297 298 297 298 299 299 298 295 297 297 298 298 297 296 296 295 294 294 294 293 293 292 292 292 292 292 292 292 292 291 291 290 290 289 289 289 289 289 288 288 288 289 289 288 288 287 288 287 287
289 288 291 293 295 293 292 292 292 291 291 290 289 288 286 288 290 293 292 293 290 289 289 288 287 289 291 293 295 295 294 295 296 297 298 298 297 297 297 297 298 298 297 295 296 296 297 297 297 296 296 296 296 294 294 294 293 292 292 292 292 292 292 292 292 292 291 291 290 290 289 289 288 288 289 288 288 289 288 288 288 288 287 287 287 287
286 289 294 295 294 294 293 293 292 290 290 288 289 285 286 290 287 288 289 289 290 290 284 284 286 288 290 292 293 295 296 296 297 298 298 299 298 298 298 299 299 298 296 296 296 295 295 296 296 295 295 295 295 294 293 293 293 293 293 292 292 292 292 292 292 292 291 291 289 288 289 288 288 288 289 288 287 287 287 287 288 287 287 287 286 286
290 291 295 296 295 294 293 293 290 288 289 290 290 289 288 289 290 289 289 288 288 289 289 287 287 288 289 290 293 296 297 296 297 297 297 298 299 300 300 299 299 299 296 296 295 294 294 294 295 295 295 294 294 293 293 293 293 294 293 292 292 292 292 292 292 292 290 290 288 288 288 288 287 287 286 286 285 286 287 287 286 287 287 287 286 286
291 293 293 293 293 293 292 290 289 289 288 289 289 290 291 291 290 290 289 288 285 284 287 287 283 285 288 290 292 295 292 292 294 294 296 297 298 298 298 298 299 299 297 297 296 295 295 295 295 294 293 293 294 293 294 294 294 294 293 293 292 292 292 291 291 291 290 290 289 288 287 286 286 285 285 285 286 286 286 287 287 286 287 287 286 286
291 293 295 293 292 291 290 290 289 291 290 288 286 291 292 290 289 287 286 287 281 281 286 288 283 283 284 287 290 290 290 292 292 293 294 295 296 296 297 298 298 297 296 295 295 295 294 294 294 293 293 293 293 294 294 294 294 294 293 293 292 292 292 292 291 291 291 289 289 289 288 288 287 286 287 287 288 287 287 287 286 286 286 286 286 285
292 290 291 293 292 290 288 287 291 292 290 287 287 288 289 289 288 288 288 287 285 284 286 286 283 280 284 289 290 291 291 291 292 293 293 295 295 296 297 297 296 296 296 296 295 295 295 295 294 293 294 293 294 294 293 293 293 293 293 292 292 292 292 292 291 291 291 290 289 288 288 288 287 287 287 287 287 287 287 286 286 286 286 285 286 285
291 289 289 290 288 287 289 293 291 293 291 287 289 290 290 290 288 288 287 284 282 282 282 284 286 283 283 286 292 292 289 290 292 293 294 295 295 296 297 298 296 295 296 297 296 295 295 294 294 295 293 294 293 293 293 293 293 293 293 292 292 292 291 291 291 291 290 291 290 289 288 287 288 287 287 287 287 286 286 285 285 285 285 285 285 285
291 291 291 292 289 289 290 287 291 293 289 290 290 288 288 287 286 287 284 285 281 278 281 281 285 281 283 288 284 286 288 289 291 293 294 295 296 296 297 297 298 295 295 297 297 296 295 295 295 295 294 293 293 293 293 292 292 292 292 292 291 291 291 291 290 291 290 290 290 289 288 287 287 286 285 286 285 285 285 285 284 285 284 284 284 284
291 291 294 292 290 291 286 287 287 289 291 290 289 287 284 282 282 280 280 278 281 278 281 283 285 285 280 287 285 284 285 289 292 292 293 295 295 296 297 297 298 297 296 297 296 296 295 295 294 293 293 293 292 292 292 292 292 292 292 291 291 291 292 291 290 290 290 290 290 289 288 288 287 286 285 285 285 285 284 284 284 284 284 284 284 283
289 290 290 288 292 289 288 287 287 288 289 288 285 283 284 282 278 278 276 279 275 278 281 285 284 285 279 280 284 289 290 291 293 291 293 294 295 296 296 296 297 297 296 297 296 294 293 292 292 292 292 292 292 291 292 291 291 291 291 291 291 291 291 291 290 290 290 290 289 289 289 288 287 286 286 285 285 285 284 284 284 284 283 283 283 282
286 288 288 292 292 294 288 288 285 283 286 288 283 283 280 275 276 273 273 272 272 279 279 283 285 281 282 286 286 288 290 290 291 293 294 294 295 295 295 295 296 296 295 296 296 295 294 293 292 292 292 291 291 292 292 292 291 291 291 291 290 290 291 291 290 290 290 289 289 289 289 288 288 287 287 286 285 285 285 284 284 283 283 282 282 282
283 285 288 289 290 291 292 287 282 282 284 285 285 281 278 274 272 269 271 271 273 278 280 281 283 283 286 285 291 293 295 294 293 294 294 295 295 295 295 295 295 295 296 297 297 295 294 294 293 293 293 292 292 292 292 292 291 291 291 290 290 291 291 290 290 290 289 289 289 289 289 288 288 287 287 286 286 285 285 285 284 283 283 282 282 282
279 284 285 288 286 291 293 293 291 289 284 288 285 287 284 280 270 269 273 276 278 280 276 280 280 276 276 282 288 294 295 296 295 295 295 294 294 294 293 291 292 294 294 296 296 296 295 295 294 293 293 293 292 292 292 292 291 291 290 290 290 290 290 290 290 290 289 289 289 289 289 289 288 287 287 287 287 286 285 285 284 284 283 283 282 282
285 285 286 294 289 291 291 294 292 285 284 283 283 285 279 281 282 282 283 278 275 276 278 275 280 278 284 287 287 289 290 291 291 293 293 293 292 291 292 294 295 295 295 295 295 295 295 294 293 293 292 292 292 291 291 291 291 291 291 291 290 290 290 290 290 290 290 289 289 289 288 288 288 288 287 287 286 286 285 285 284 283 283 282 281 281
284 283 287 290 288 289 288 288 291 290 282 282 286 281 286 286 287 282 281 279 276 275 279 277 280 285 287 291 291 293 292 292 290 290 289 291 292 291 292 295 293 294 294 294 295 295 295 292 292 293 292 292 291 291 291 292 292 292 291 291 290 290 290 290 290 290 290 290 289 288 288 288 287 287 287 286 286 285 285 284 284 283 282 281 280 280
286 288 290 288 287 288 285 287 289 287 288 284 280 284 287 286 284 282 274 274 275 273 279 282 280 282 281 281 284 286 289 287 288 290 291 292 293 292 293 294 294 295 295 295 295 294 294 294 293 293 292 292 292 292 292 292 292 292 292 291 290 290 289 290 290 290 290 289 289 288 288 288 288 287 287 286 285 285 284 283 282 281 280 280 280 281
291 284 288 288 286 288 287 289 288 288 288 284 282 287 286 279 279 282 278 276 276 276 278 281 283 282 283 284 287 287 285 287 290 291 292 292 292 292 293 292 293 293 293 293 294 294 294 293 293 293 293 293 293 292 292 292 291 291 291 291 291 290 290 290 290 290 290 289 289 289 288 288 287 287 287 286 285 284 283 282 281 281 281 280 280 280
289 285 285 286 288 287 284 284 281 284 287 287 287 283 283 282 278 278 284 281 281 278 280 280 283 281 287 284 286 286 288 288 290 290 291 292 293 294 293 292 293 293 294 294 294 295 295 295 294 293 293 292 292 292 291 291 290 290 291 290 290 290 289 289 289 289 289 289 289 289 288 287 287 287 286 285 284 283 283 282 281 280 279 279 279 279
287 288 283 286 284 287 282 284 282 286 284 283 284 280 282 280 282 282 282 282 282 278 278 278 278 283 287 286 287 286 286 287 289 289 290 292 293 292 292 293 293 293 294 294 295 295 295 294 293 292 292 291 289 289 289 289 290 290 290 289 290 289 289 289 289 289 289 289 288 288 287 286 286 285 285 284 283 283 282 281 281 280 279 279 279 278
286 285 284 283 282 283 287 288 288 289 290 287 288 285 286 282 280 279 278 285 281 282 278 278 277 284 291 290 290 291 286 287 288 289 291 291 292 292 292 291 291 292 293 294 295 294 294 294 294 292 288 287 288 288 288 290 289 288 289 290 289 289 288 288 288 288 288 288 288 287 287 286 285 285 284 283 282 282 281 280 280 279 278 278 278 278
289 284 285 284 286 288 290 290 289 290 290 289 290 286 288 285 284 282 278 282 282 281 284 284 281 283 294 295 294 291 290 288 288 289 290 291 291 292 293 292 291 291 293 295 295 295 293 293 294 293 292 291 291 291 290 289 288 289 289 289 289 288 288 289 289 289 288 288 287 286 286 285 284 283 282 282 281 281 280 280 279 279 278 278 277 277
293 287 284 285 288 286 287 287 286 286 288 286 285 286 285 284 285 285 285 285 283 283 281 281 279 283 293 295 293 292 288 288 289 289 290 291 292 293 292 291 290 291 292 292 293 293 294 291 289 288 289 290 290 290 290 289 289 289 289 288 288 288 288 288 288 288 287 287 286 285 284 284 283 282 282 281 281 281 280 279 279 278 278 278 277 277
286 285 285 282 283 282 284 288 287 285 284 282 282 285 286 287 286 285 285 284 281 282 283 280 276 282 290 292 290 291 291 290 288 289 289 290 291 290 290 290 291 291 291 290 291 292 292 288 289 291 291 291 291 291 290 290 289 289 288 288 288 288 289 288 288 287 287 286 285 284 284 283 282 282 281 281 281 280 279 279 278 278 277 277 276 276
287 284 283 279 277 276 276 277 279 283 282 282 283 285 286 286 286 283 281 283 279 283 284 281 280 286 291 292 293 293 294 293 293 289 288 288 288 289 289 291 292 291 291 292 292 290 290 292 292 291 290 291 290 290 290 289 289 289 289 288 288 288 288 287 287 286 286 285 284 283 283 283 282 282 281 281 280 279 279 278 278 277 277 277 276 275
285 285 285 284 283 281 284 285 287 286 283 282 283 283 284 286 287 286 284 282 280 283 282 284 285 285 287 289 291 292 293 293 294 295 294 294 293 291 290 290 291 292 293 293 293 293 290 289 289 291 291 291 291 290 290 289 289 288 288 288 287 287 287 287 286 285 285 284 284 283 283 283 282 282 281 281 280 279 278 277 277 277 276 276 275 275
285 284 285 285 285 286 288 287 289 289 285 286 286 285 286 286 286 285 283 281 286 282 279 285 287 285 286 290 291 292 293 294 295 295 295 295 295 296 296 292 292 292 291 289 288 290 290 291 290 290 290 290 290 289 288 288 288 288 288 288 287 286 286 286 285 285 285 284 284 283 283 283 282 282 281 280 278 278 277 277 276 276 276 275 274 274
285 283 286 286 285 287 288 288 289 288 287 287 287 287 286 287 286 284 284 286 286 282 280 286 287 285 287 290 292 293 294 294 295 296 296 296 296 296 294 290 289 290 290 287 289 290 290 290 291 291 290 289 289 288 287 287 287 286 286 287 286 286 286 286 285 284 284 284 284 283 283 282 281 280 280 278 277 277 276 276 276 275 274 274 274 274
286 283 286 286 285 286 287 287 288 287 286 287 286 287 287 287 286 286 286 287 286 285 287 287 287 287 290 291 293 294 296 296 296 297 297 295 295 296 295 294 294 292 286 288 290 290 291 291 292 291 290 289 289 288 288 287 286 286 286 286 286 285 286 285 285 284 284 283 283 283 282 281 280 279 278 277 276 276 275 275 274 274 273 273 273 272
288 283 289 286 284 284 286 287 287 287 286 285 286 287 287 287 287 287 287 287 287 286 287 287 286 286 291 294 294 296 297 297 297 296 296 296 296 296 295 295 294 294 290 289 291 291 291 291 290 290 290 290 290 289 289 288 287 286 286 286 285 285 285 285 284 284 284 283 283 282 281 280 278 278 277 276 276 275 275 274 273 273 273 272 272 272
287 284 289 285 282 280 286 285 285 286 285 284 285 286 286 286 284 286 285 287 286 284 286 286 284 285 290 294 294 295 295 295 294 295 295 296 296 296 295 294 293 291 291 291 291 291 291 290 290 290 291 291 291 290 289 288 287 285 285 285 284 285 284 284 284 284 283 283 282 281 279 279 277 276 276 275 275 274 274 273 273 272 272 271 271 271
284 283 283 284 281 280 286 286 285 285 283 280 281 285 287 287 288 289 289 290 289 289 285 283 284 290 292 293 292 293 293 294 294 294 295 295 296 296 295 295 295 293 292 292 291 291 291 290 291 291 291 291 291 291 290 289 287 285 285 284 284 284 283 283 283 283 282 281 280 279 279 277 276 276 275 275 274 274 273 272 272 272 271 270 270 270
285 285 284 286 281 281 286 285 286 282 275 276 288 291 290 287 288 286 286 288 290 290 288 290 290 292 293 292 292 292 292 293 294 296 297 295 295 295 295 295 294 293 293 292 291 291 291 291 291 292 291 292 291 291 291 290 289 288 286 285 283 283 283 283 282 282 281 280 279 278 278 277 276 276 275 274 274 273 272 272 271 271 270 270 269 269
285 285 284 286 282 280 285 285 280 275 276 287 291 292 292 292 291 289 289 290 290 291 291 290 291 291 293 293 294 294 295 296 297 296 295 294 294 295 295 295 295 292 291 291 291 290 291 292 292 291 290 289 289 289 289 288 287 286 282 282 282 282 282 282 281 281 280 279 279 278 277 277 276 275 274 273 273 272 271 271 271 270 269 269 269 269
286 285 284 283 284 284 281 280 274 275 284 284 290 291 292 292 291 289 286 289 290 291 291 289 291 292 293 293 294 295 295 296 296 296 295 296 296 295 294 295 296 296 295 294 294 293 292 291 291 291 291 291 289 288 288 289 287 284 283 282 282 281 281 281 281 280 280 279 278 277 277 276 275 274 273 273 272 271 271 271 270 269 269 269 269 270
288 287 286 281 286 278 279 280 279 285 285 284 285 285 287 285 285 285 281 285 290 291 291 290 290 292 292 293 294 294 295 294 292 293 296 294 293 293 293 293 294 295 295 295 293 293 294 293 292 292 291 291 290 289 289 288 284 283 281 280 281 280 280 281 280 280 279 279 278 277 276 276 274 273 272 272 271 271 270 270 269 269 269 268 269 269
290 285 286 283 280 285 278 277 279 278 275 281 289 290 293 292 292 291 287 284 288 285 288 288 288 290 289 288 288 289 290 288 287 289 290 290 291 291 291 292 291 291 292 292 293 291 290 290 290 290 290 290 289 289 288 284 283 282 281 280 279 279 279 279 280 279 279 278 277 276 275 275 274 273 272 271 271 271 271 270 270 269 269 268 268 268
289 289 286 283 281 282 280 277 276 275 278 286 287 291 292 292 292 290 284 281 284 284 287 285 283 284 284 284 285 286 285 283 283 285 288 289 288 289 289 289 289 290 290 291 290 290 291 291 290 289 288 288 288 286 282 282 282 281 280 280 278 279 278 278 279 279 278 278 277 276 275 275 274 273 272 271 271 271 270 269 269 269 269 269 269 268
284 285 284 281 279 281 279 277 275 281 279 280 281 284 288 289 291 284 275 276 283 285 285 284 282 282 282 283 284 283 281 278 280 283 286 287 287 286 287 287 287 288 289 290 290 289 289 289 288 287 286 286 286 281 281 281 282 281 280 279 278 277 278 278 279 280 279 278 276 275 275 275 274 273 272 272 271 271 270 270 269 268 269 269 269 268
280 281 282 278 280 280 280 278 281 282 284 279 280 284 284 286 285 277 272 278 284 284 284 283 281 281 281 281 281 279 281 283 284 285 285 285 284 284 285 286 286 287 288 289 290 289 289 289 287 287 286 284 280 279 280 280 281 281 280 278 278 278 279 280 279 278 277 277 275 274 274 274 274 273 272 272 271 270 269 269 268 268 268 268 268 267
275 279 280 282 278 278 279 278 278 282 280 281 282 285 284 284 279 273 277 282 284 282 283 283 281 281 281 281 280 280 282 283 283 283 283 283 283 283 284 284 285 286 287 288 289 289 290 289 288 288 285 280 278 278 278 279 280 279 277 277 277 279 280 278 277 277 276 276 275 274 274 273 273 272 271 270 270 269 269 269 268 268 267 267 266 266
274 274 271 273 277 280 280 277 276 273 279 283 281 280 282 273 272 280 282 285 285 283 282 282 282 280 282 280 281 281 281 282 282 282 282 283 283 283 283 283 284 285 286 287 288 289 289 289 289 289 285 280 278 279 280 280 280 279 277 277 279 279 277 277 276 276 276 275 274 273 273 272 272 271 271 270 269 269 268 267 266 266 266 265 265 265
279 272 273 276 280 272 272 273 272 276 278 284 281 274 279 280 283 284 284 282 283 282 281 281 280 281 282 281 280 281 281 282 282 283 283 283 284 284 283 284 284 285 286 287 287 288 288 288 289 289 287 279 279 279 281 282 282 280 278 279 278 277 276 276 275 275 274 274 273 272 272 271 271 271 270 270 269 268 267 266 265 265 265 265 265 264
282 274 275 272 278 274 271 276 278 280 281 283 284 281 281 283 284 285 285 283 280 280 283 280 280 281 281 281 281 281 281 282 282 283 283 283 284 284 284 285 285 285 285 285 286 287 287 288 288 288 288 284 279 279 280 282 283 282 280 280 277 277 276 275 274 274 273 272 272 271 271 270 270 269 269 268 268 267 266 265 265 264 265 264 264 264
278 279 281 277 275 280 281 281 280 280 280 280 282 282 281 282 285 284 283 280 281 282 282 280 281 281 281 282 281 281 282 282 282 283 283 284 284 285 285 286 286 287 287 287 287 288 288 288 287 286 285 286 281 279 279 280 282 282 283 278 277 277 276 274 273 273 272 271 271 270 269 269 268 268 268 267 268 267 266 265 264 264 264 264 264 264
277 278 276 273 275 273 268 278 277 278 280 280 280 281 284 285 285 283 280 281 281 282 281 281 281 281 281 282 281 281 281 282 282 283 283 284 284 284 284 284 285 286 286 286 287 288 288 287 287 286 286 285 284 279 279 280 281 283 279 276 277 276 275 273 273 272 270 270 269 268 268 268 267 266 266 266 267 266 266 265 265 265 264 264 264 264
271 277 272 273 273 272 271 277 278 280 280 280 279 278 279 281 281 280 280 280 280 280 281 281 282 280 280 279 279 279 280 281 281 281 281 281 281 282 282 283 284 284 285 286 287 287 287 287 287 287 287 287 287 284 281 280 280 281 278 276 276 274 273 272 272 271 269 269 268 267 266 266 265 265 265 266 266 265 265 264 265 264 264 264 265 265
274 275 268 270 271 274 276 277 278 279 277 277 278 278 279 279 278 278 279 279 279 279 280 279 279 278 279 278 279 279 279 279 280 280 280 280 280 281 281 282 283 284 284 285 286 286 286 286 286 286 286 286 287 285 282 281 281 280 278 276 274 273 272 272 270 270 268 267 266 265 266 266 265 265 265 265 265 265 265 265 265 265 265 267 268 267
273 270 274 272 268 268 269 273 275 270 270 275 276 277 277 278 277 277 277 277 277 277 277 276 277 278 278 278 278 278 277 278 278 279 279 279 280 280 281 281 282 282 283 284 285 285 285 285 285 285 285 286 287 285 282 281 281 279 278 275 273 272 272 271 269 268 267 266 266 265 265 265 265 265 265 265 264 264 264 267 269 267 266 267 270 271
273 273 273 270 269 269 274 275 276 275 274 275 276 277 277 277 276 275 275 275 276 276 276 276 275 275 275 276 277 276 276 277 277 278 277 278 279 279 280 280 280 281 281 282 282 283 283 284 284 285 285 285 285 285 284 282 281 278 276 274 273 273 273 271 269 268 266 265 265 265 265 265 265 264 264 264 264 264 264 265 268 271 270 270 271 272
Wind_Speed
5 7 7 8 14 13 8 11 16 16 9 7 6 6 12 11 11 12 11 6 6 3 10 15 17 16 17 19 18 16 12 9 12 13 12 11 13 14 14 14 13 15 20 13 8 10 13 14 13 12 11 11 12 12 14 15 15 15 16 14 15 13 13 12 12 12 12 12 8 6 11 11 10 10 8 8 8 8 8 9 9 9 8 8 8 8
4 7 9 14 17 12 10 12 11 10 8 11 11 10 13 6 14 14 11 3 5 6 5 11 15 16 18 19 18 12 6 12 14 15 14 16 17 16 16 15 16 19 12 2 5 7 8 9 10 10 10 11 14 12 13 16 16 14 15 17 15 12 14 14 15 13 12 13 14 14 13 10 10 10 10 10 9 9 7 9 9 9 8 9 8 8
7 11 13 19 13 6 6 6 8 11 10 10 11 11 9 10 12 14 7 8 4 5 13 7 12 15 16 18 17 13 13 12 13 15 18 18 16 14 15 15 17 15 14 6 8 8 11 11 11 11 11 13 17 16 17 15 15 15 15 15 14 14 14 13 13 12 13 10 8 9 7 10 7 4 4 5 6 7 8 9 9 8 9 9 8 8
8 8 18 11 8 10 10 7 8 7 7 8 10 8 13 8 4 14 4 1 2 8 4 4 10 10 8 12 16 17 14 12 14 15 17 17 18 17 18 17 16 15 12 11 10 10 10 11 11 10 11 13 11 12 11 14 17 15 15 14 15 14 14 13 13 12 9 8 5 4 5 4 4 5 6 5 5 6 7 8 8 8 9 9 9 9
18 6 9 10 10 10 14 11 7 7 12 10 13 11 10 10 12 12 10 2 3 4 3 8 11 12 9 15 15 17 16 15 15 14 16 17 15 18 16 13 15 17 12 12 8 6 8 10 14 16 14 11 14 14 16 16 16 13 17 16 16 14 15 13 12 12 9 8 6 6 6 5 5 5 5 5 6 7 7 7 9 11 9 9 9 8
16 7 4 6 10 11 10 9 7 7 13 13 8 10 16 12 13 12 10 7 4 6 4 4 9 12 9 19 21 14 5 8 10 13 18 19 18 17 17 21 19 13 10 13 13 13 14 16 12 9 10 13 13 15 16 16 17 15 14 14 14 12 12 13 13 13 11 12 12 11 10 11 8 8 10 13 15 12 13 14 8 7 8 9 8 8
7 6 8 8 9 11 8 9 7 11 15 11 6 13 14 11 10 8 8 2 7 7 4 2 8 17 6 8 10 8 7 13 7 10 15 14 15 14 15 17 17 11 9 7 6 9 11 11 11 12 13 15 16 16 13 13 15 15 15 15 16 14 12 12 13 14 12 12 12 15 15 14 15 14 11 9 9 11 9 7 10 10 8 9 9 8
4 4 10 12 11 9 6 7 10 14 10 11 2 6 5 6 6 8 6 7 9 1 3 1 3 7 20 11 8 9 11 11 12 12 11 12 12 14 16 16 14 11 9 10 11 12 14 15 17 18 18 15 18 14 13 13 13 16 15 15 15 12 12 12 12 15 15 14 14 13 13 12 13 14 13 12 11 9 7 9 9 8 8 8 8 9
4 2 6 8 6 6 11 17 2 10 8 4 1 6 3 5 5 0 1 2 2 4 10 8 2 7 15 5 15 15 12 11 16 16 14 14 14 15 17 17 12 10 10 10 11 13 14 15 15 14 14 15 10 11 14 14 14 12 12 13 13 14 13 13 15 16 16 14 14 14 12 12 10 10 8 7 7 8 8 10 8 8 8 8 8 8
2 2 5 7 7 11 6 2 8 11 8 3 3 5 4 3 3 1 0 1 4 2 14 7 7 7 22 12 4 3 9 11 13 16 16 15 15 16 16 16 15 7 6 9 14 14 14 14 14 14 10 9 13 11 10 10 11 12 11 13 15 15 14 13 15 16 16 15 13 14 14 15 11 8 7 8 9 9 9 11 10 9 9 9 8 8
3 2 3 5 8 5 4 1 1 1 2 2 4 2 4 5 2 2 4 3 5 9 11 13 10 10 14 17 10 6 8 12 11 7 8 9 11 14 14 13 14 11 8 9 10 8 10 9 9 7 12 13 8 8 10 11 12 12 13 14 16 17 13 14 16 16 17 15 14 15 15 16 14 12 11 10 10 9 9 11 11 10 9 8 9 8
2 1 2 4 3 4 3 2 4 1 2 2 1 3 4 6 5 3 3 2 3 14 3 14 14 15 14 6 2 3 2 8 11 10 11 12 14 14 13 12 14 12 9 8 7 7 7 6 6 7 9 11 12 9 11 11 11 12 13 13 16 14 16 15 15 16 16 15 16 14 14 16 15 14 13 15 15 14 15 13 12 10 8 9 8 8
7 13 3 1 4 11 3 2 2 3 1 4 5 5 2 5 5 2 2 2 6 13 2 8 10 2 23 9 2 4 1 4 5 8 11 12 13 14 11 12 12 9 6 8 9 8 9 12 13 13 12 9 12 16 15 14 13 12 13 15 17 18 16 16 16 17 17 16 16 16 16 15 13 15 15 15 14 13 14 12 12 12 11 9 9 10
9 2 6 5 3 6 8 8 2 2 6 8 8 6 5 4 3 4 5 4 5 7 5 6 4 14 9 3 10 16 17 13 11 12 11 12 13 14 12 11 9 8 9 10 10 11 12 13 14 14 14 15 14 14 15 15 14 14 13 15 17 19 16 14 15 17 17 19 18 16 15 14 13 14 14 13 13 13 12 12 14 14 14 14 14 13
5 10 8 8 6 7 15 14 18 11 8 13 4 13 13 9 5 3 5 10 11 11 2 3 6 8 4 4 4 14 14 12 11 12 13 13 12 12 10 6 5 5 6 7 10 12 14 14 14 14 14 14 13 13 14 13 14 13 13 15 18 16 15 17 18 16 19 17 16 15 15 14 13 14 13 12 11 13 13 12 13 12 11 12 11 12
11 14 6 16 1 9 14 14 6 4 2 2 3 2 2 7 7 10 9 6 3 5 8 4 8 4 7 2 3 5 6 8 7 11 10 11 10 9 8 10 10 7 7 7 9 10 10 10 10 10 10 12 12 13 12 13 13 14 17 18 19 20 20 20 18 18 19 18 15 14 15 16 15 12 11 10 9 11 12 13 13 13 12 10 9 8
1 8 1 5 6 6 6 3 5 7 7 4 8 8 12 1 6 4 4 2 2 1 18 3 7 10 6 15 8 17 13 12 5 7 6 9 12 10 10 12 7 6 8 8 9 10 10 6 8 11 11 10 9 10 15 18 18 21 19 16 18 17 14 16 17 19 16 15 14 16 16 14 14 15 16 15 14 13 11 11 11 11 10 9 9 9
9 9 3 6 4 1 2 0 0 3 4 8 3 8 2 3 4 4 5 3 2 7 13 6 11 14 6 15 3 5 1 5 6 9 11 13 14 12 13 12 6 9 10 10 8 7 8 11 12 10 9 11 14 17 16 17 16 15 15 16 18 16 18 18 18 17 16 17 17 16 16 16 16 16 15 13 13 11 11 9 9 8 9 10 10 10
3 11 6 3 2 4 2 1 5 1 1 3 4 1 6 4 3 3 4 5 7 9 8 11 13 11 11 17 6 11 6 8 11 13 13 14 13 13 13 8 6 5 3 5 8 8 8 10 11 13 14 15 14 13 12 11 10 10 12 15 16 19 20 20 17 15 12 12 12 14 17 17 15 13 12 11 11 11 12 13 11 12 11 9 9 10
0 7 3 1 5 1 1 4 7 4 1 1 2 1 1 1 3 6 8 3 4 15 9 16 13 15 9 4 6 7 9 8 10 9 11 13 12 14 11 8 8 7 9 8 8 10 12 12 12 13 14 13 16 16 14 12 11 13 15 13 13 12 10 9 12 14 16 17 15 13 12 13 13 12 11 11 13 13 14 13 12 12 11 12 10 11
9 5 13 1 3 1 3 6 9 11 9 3 2 3 1 1 4 3 3 5 8 9 9 9 13 13 8 4 2 2 6 6 10 11 10 11 13 12 11 11 9 9 8 9 10 11 11 10 9 10 10 9 4 3 6 9 14 15 10 11 12 15 16 16 16 15 15 13 14 14 15 15 14 14 11 10 12 13 12 12 12 12 12 11 12 12
1 1 11 2 1 6 11 2 10 11 12 10 13 12 13 8 3 5 11 1 4 8 9 9 15 8 14 5 1 0 3 3 6 8 10 11 12 12 10 8 8 7 8 9 9 8 9 10 10 8 5 3 6 7 8 10 9 9 13 16 15 14 13 15 15 15 16 14 14 15 14 13 11 11 10 12 11 13 12 13 13 12 12 14 12 12
1 1 3 8 8 10 7 5 4 6 7 6 9 8 9 6 5 6 13 8 5 4 4 12 12 13 17 16 13 7 5 5 6 7 10 10 10 11 13 13 10 9 10 11 10 10 10 9 10 11 11 12 13 14 14 10 12 14 15 14 13 15 17 17 18 15 13 13 14 15 13 11 11 11 12 13 12 13 13 13 12 12 15 13 12 10
5 3 5 10 8 5 4 1 4 1 2 2 4 2 1 5 6 11 12 7 10 7 10 9 14 9 13 18 10 12 5 5 7 6 10 11 11 13 13 10 8 7 10 8 7 7 8 7 5 4 6 10 10 10 13 13 13 13 12 14 14 16 18 16 13 13 13 13 13 12 11 13 12 13 13 14 13 14 13 13 12 12 13 12 11 12
3 3 2 5 5 4 6 9 5 0 3 3 3 5 5 4 3 4 3 1 9 10 14 12 16 7 6 10 8 14 16 13 7 7 6 10 10 8 7 7 7 7 7 6 7 9 7 5 6 10 11 12 14 13 13 13 13 13 14 12 14 16 16 14 12 11 12 12 13 13 15 14 14 15 16 16 13 15 13 12 12 11 13 12 11 10
7 3 2 6 11 12 11 10 13 15 7 2 2 5 6 8 9 3 8 6 13 8 14 13 13 11 14 11 20 24 24 24 21 10 6 7 9 10 7 7 8 7 8 9 9 7 8 11 11 8 8 9 10 11 11 12 13 13 13 15 15 15 12 12 10 12 12 11 13 13 15 16 15 17 18 17 14 14 13 11 11 12 10 12 13 11
3 4 7 11 12 15 15 13 1 6 2 2 4 6 7 7 8 8 5 6 11 11 14 13 16 18 14 13 21 27 28 29 24 19 17 16 15 13 10 8 7 9 12 13 12 10 8 7 8 11 11 11 11 11 11 12 13 13 13 14 13 13 13 13 12 12 12 12 14 13 15 16 17 17 16 15 13 12 12 12 12 12 12 10 11 12
2 6 12 16 19 16 14 13 12 10 11 14 13 14 12 12 11 12 12 17 15 13 19 14 20 20 20 20 24 27 29 29 25 23 21 16 17 19 18 11 14 14 10 6 6 8 11 12 11 10 12 11 12 12 11 11 12 14 15 16 14 13 12 10 12 13 14 14 14 14 16 16 15 14 14 12 11 12 12 11 11 11 10 10 12 12
8 12 14 14 20 18 21 20 22 22 20 21 22 21 23 21 18 17 20 21 18 18 23 18 18 21 21 22 25 27 29 30 29 25 19 17 16 17 16 11 11 14 11 7 10 11 11 12 13 13 12 12 11 11 13 11 11 10 10 10 10 11 14 13 13 13 13 14 15 15 15 12 11 10 11 12 12 12 12 12 11 10 10 10 10 9
4 11 12 17 23 20 22 22 23 25 22 21 21 22 23 23 24 22 24 24 24 24 22 21 23 28 24 21 23 27 27 26 24 22 19 17 22 23 19 16 19 15 6 9 12 13 14 16 15 12 11 11 12 13 13 12 12 12 13 13 12 13 12 12 14 14 14 15 16 13 11 11 10 11 11 12 13 13 12 12 11 11 11 10 9 9
11 8 15 17 16 18 22 22 24 24 24 24 23 23 23 22 23 25 23 20 20 22 23 28 28 28 21 24 25 23 23 20 21 25 28 29 28 25 23 21 16 13 11 12 14 14 14 13 12 11 12 14 14 15 15 14 14 12 12 11 12 13 12 13 14 14 15 16 13 11 11 11 11 12 13 13 12 12 13 13 11 11 11 10 11 11
13 9 7 7 12 15 16 21 24 22 25 26 25 23 24 25 26 24 20 19 19 25 27 27 22 20 22 25 24 24 24 25 26 29 29 27 27 23 19 17 13 10 12 13 14 13 12 11 11 13 15 16 16 15 13 12 12 10 13 13 13 12 11 13 13 15 14 13 11 12 13 12 13 13 13 13 13 13 13 12 12 12 11 11 10 9
9 5 8 11 17 16 13 19 21 22 20 21 23 25 31 30 27 22 22 22 24 23 23 19 22 21 24 18 19 19 23 26 27 27 27 29 26 21 19 19 18 12 12 13 13 13 14 14 15 16 17 15 15 14 15 15 12 13 15 13 13 10 12 14 14 14 13 12 13 13 13 13 15 14 13 14 13 12 12 13 12 12 12 13 11 9
4 11 12 8 13 12 12 18 15 17 21 20 16 29 28 29 27 27 25 26 29 22 21 21 24 21 20 17 20 23 24 25 24 25 21 15 14 18 20 18 13 11 13 12 12 14 15 14 13 14 15 16 15 15 16 13 15 16 14 12 9 13 13 14 13 13 13 13 13 14 14 14 14 14 14 13 13 13 14 14 15 13 11 10 10 11
10 11 14 7 10 9 11 15 16 23 20 6 8 16 25 29 28 29 30 29 28 27 29 27 25 23 25 23 22 24 24 24 23 20 12 9 11 15 19 18 15 11 12 12 12 12 13 14 14 14 13 12 14 12 9 9 10 7 5 9 12 12 13 13 13 12 13 14 13 13 13 15 14 14 13 13 14 14 14 15 13 13 12 12 13 14
15 13 9 7 8 8 6 8 15 12 4 1 8 16 20 24 25 24 25 22 24 26 27 27 25 25 24 25 24 22 23 24 20 15 13 15 15 15 16 18 20 19 16 13 13 12 12 13 15 15 16 13 9 8 8 11 9 8 9 9 12 12 13 13 13 14 12 13 14 15 15 14 14 14 13 14 14 15 15 15 15 16 12 11 10 8
20 15 12 12 11 15 12 15 21 11 14 5 4 5 10 12 9 15 20 21 24 24 23 24 23 23 22 22 22 21 19 18 15 12 10 11 18 20 19 19 20 20 18 14 11 13 14 14 14 15 12 8 8 9 10 9 7 8 8 10 10 11 11 12 13 14 15 14 14 14 14 14 15 15 15 15 16 16 16 16 14 13 11 13 12 10
15 18 12 14 8 12 15 15 14 13 16 13 15 8 12 17 19 19 17 18 8 18 18 14 14 13 14 15 16 14 8 9 12 8 9 18 16 18 18 17 19 20 19 18 17 11 9 8 9 11 9 10 9 10 7 6 9 10 10 10 10 11 12 13 15 14 13 13 13 14 14 14 15 16 16 17 19 19 16 15 13 14 14 16 15 12
14 14 14 12 9 10 15 14 12 9 7 1 7 11 17 15 17 12 7 12 8 14 16 16 18 17 16 17 17 16 12 5 6 9 12 17 17 14 15 16 16 17 16 15 15 15 14 12 10 9 8 7 9 7 5 7 10 10 10 10 11 11 12 14 13 13 15 16 15 15 15 15 16 16 17 18 18 17 18 18 17 14 12 12 12 13
8 10 10 16 15 14 14 13 11 4 4 10 16 15 17 10 6 2 11 4 7 8 13 16 16 15 15 15 14 12 12 10 11 14 18 18 15 13 11 14 17 17 17 17 16 13 12 11 9 7 5 7 8 2 6 7 9 10 11 10 9 10 12 14 16 16 11 10 12 12 13 14 16 16 17 17 15 14 15 12 11 13 13 11 11 11
4 5 7 15 12 16 19 17 11 9 3 12 14 18 20 9 5 7 7 9 12 9 12 13 13 13 14 11 10 11 10 6 10 15 16 16 16 18 15 13 13 13 13 15 16 15 13 13 10 8 6 7 3 0 3 5 6 8 8 10 11 13 17 16 11 9 11 11 11 12 14 13 15 17 15 13 14 12 10 10 13 13 13 13 10 13
8 8 5 7 13 13 15 18 17 7 4 10 15 11 17 9 9 4 12 17 6 12 14 10 14 13 13 10 9 9 11 13 12 12 15 15 14 15 14 14 14 16 16 14 15 13 14 13 13 12 9 5 1 0 2 4 5 4 4 7 11 18 11 5 8 9 10 13 13 13 13 13 11 12 12 11 12 13 13 10 12 13 14 11 12 14
5 6 6 8 8 9 8 12 13 12 4 17 13 11 12 9 9 10 13 9 4 11 14 15 11 13 12 14 15 13 13 14 12 12 14 16 16 16 17 16 15 14 15 16 18 17 13 13 15 13 7 2 0 2 3 4 5 5 5 9 14 3 5 7 8 9 10 11 13 14 15 14 16 15 13 14 14 15 13 11 12 11 12 13 13 13
7 12 8 3 3 5 5 5 1 6 9 4 9 3 9 6 8 10 9 7 9 9 12 12 13 12 11 14 15 17 16 14 14 12 13 15 16 16 14 14 13 13 13 13 10 11 11 13 13 13 10 2 2 3 3 6 5 5 7 15 3 4 5 7 9 9 10 10 11 11 12 12 13 12 12 14 14 14 14 14 13 13 12 12 13 12
2 3 4 9 4 5 5 8 12 15 4 2 1 6 10 12 7 4 4 7 11 14 7 10 14 13 12 12 14 14 15 14 13 13 14 15 17 17 18 17 15 14 15 15 14 13 10 13 14 13 12 9 4 4 5 6 9 7 11 6 4 5 7 7 9 10 11 11 11 12 11 11 11 12 12 12 14 15 13 14 14 14 12 12 11 12
8 11 5 6 7 8 11 8 12 13 12 13 14 5 8 8 1 5 6 11 8 7 10 9 9 12 11 11 12 13 11 13 16 15 13 13 13 14 15 15 15 13 12 12 13 14 12 13 12 11 11 12 5 4 3 4 3 8 7 3 5 5 6 8 9 9 11 10 10 11 11 12 11 10 11 13 12 14 14 16 15 14 13 11 10 11
3 5 10 9 10 12 14 10 11 7 15 18 16 8 2 6 7 5 8 6 8 9 7 5 6 7 8 8 11 13 15 14 13 14 13 12 13 14 15 16 17 16 14 15 14 14 14 12 12 12 11 12 8 4 6 6 7 8 1 5 6 7 8 9 10 9 8 10 9 9 11 13 12 11 11 12 11 10 11 12 13 14 11 9 8 7
8 2 10 9 13 10 13 11 14 16 15 12 10 13 9 5 7 6 4 5 6 6 5 5 6 7 9 10 10 11 14 14 13 14 15 14 14 14 15 14 16 17 15 11 13 12 11 12 13 14 13 13 12 6 7 8 9 9 5 5 7 9 10 11 12 13 12 11 10 10 11 11 13 14 12 12 13 13 11 11 12 11 11 13 12 12
8 6 9 4 11 11 14 13 14 13 10 14 13 7 9 8 3 3 3 4 6 5 7 7 7 9 10 11 11 12 12 14 14 13 15 16 15 14 14 14 14 15 16 15 12 10 11 12 14 13 14 14 11 8 6 9 10 7 8 8 8 10 12 11 11 10 11 11 10 10 10 10 12 12 12 12 12 10 11 14 14 9 4 10 12 15
6 9 11 9 11 11 9 9 6 11 13 14 11 6 2 3 3 3 4 4 5 6 8 9 10 9 9 10 12 11 13 15 16 15 15 15 15 16 16 15 14 14 14 13 13 13 14 13 13 14 15 15 12 8 8 10 10 8 9 7 8 10 12 11 10 10 11 11 11 11 11 11 11 12 12 13 13 11 8 7 9 12 14 12 12 12
10 11 8 10 10 13 12 11 10 13 14 10 12 7 5 3 5 7 6 4 4 4 6 8 11 12 12 11 10 13 13 14 17 16 16 14 16 15 16 17 17 17 16 15 14 14 14 15 14 15 16 15 13 11 11 10 9 8 9 10 10 12 12 11 11 10 9 10 11 13 14 13 12 12 12 12 13 12 10 8 9 17 16 11 13 13
Wind_Direction
143 175 174 197 229 225 218 201 217 229 233 257 268 264 256 259 268 261 270 237 203 205 212 220 232 239 247 251 248 247 252 251 253 246 239 240 242 240 240 237 235 238 239 244 204 196 199 197 189 182 174 175 174 171 171 170 176 174 173 169 178 177 171 167 168 172 168 169 164 170 182 182 180 178 173 174 172 173 169 164 164 164 162 162 162 165
121 192 209 219 229 227 215 213 227 249 243 242 250 256 263 240 265 254 260 220 215 191 254 226 241 242 245 253 255 250 238 240 242 249 245 238 235 242 245 247 244 245 256 249 200 207 202 191 182 171 171 163 169 182 172 177 177 173 173 179 177 174 179 180 178 175 178 180 181 176 184 177 178 171 173 177 183 177 166 162 165 165 164 164 166 165
203 212 220 225 230 244 233 212 217 219 233 240 240 250 266 255 257 272 242 249 238 178 261 245 246 247 246 253 260 254 237 237 234 237 247 250 246 241 244 243 246 250 253 239 232 202 197 189 178 172 176 182 181 175 179 176 170 176 180 184 177 181 181 184 179 177 185 181 178 178 174 174 172 190 173 163 166 156 161 169 168 165 166 166 168 166
256 233 233 225 225 237 255 233 240 253 244 240 250 258 249 252 272 283 216 299 191 185 237 227 253 264 272 269 265 258 250 239 237 238 247 248 255 252 244 241 245 248 246 236 220 204 194 182 179 176 182 184 174 174 176 176 178 179 184 183 181 183 183 182 185 184 176 169 154 133 135 144 148 170 155 142 144 153 151 170 173 175 169 169 167 167
232 212 212 214 218 217 240 236 229 247 262 237 234 242 260 251 243 236 273 333 289 302 296 296 283 270 231 256 261 257 246 251 250 248 250 254 251 254 258 257 250 247 234 230 220 202 179 179 188 188 185 169 179 181 181 180 182 184 186 185 182 181 185 184 179 176 160 144 135 121 110 114 96 86 135 142 170 177 173 164 184 185 173 169 167 167
254 246 150 184 217 225 233 251 217 209 259 255 224 205 236 244 255 259 279 322 317 312 252 205 304 261 203 221 240 248 265 246 243 239 246 248 250 252 256 256 254 246 227 217 207 191 190 190 185 183 174 181 186 186 188 182 184 182 183 181 182 182 183 183 179 172 166 171 165 158 157 170 176 175 175 189 184 180 184 190 174 164 174 170 167 169
235 208 191 205 202 221 213 225 220 185 241 263 255 197 226 233 242 261 277 356 279 255 298 132 207 286 151 231 229 246 239 254 258 228 239 242 246 247 246 249 252 240 229 233 210 188 186 192 180 185 185 189 189 196 179 182 186 184 180 182 182 182 183 180 177 174 172 176 182 182 183 181 184 184 199 190 184 184 182 160 174 177 173 173 167 172
202 205 192 213 214 213 213 239 230 186 227 256 222 182 208 235 243 251 239 198 250 235 252 85 130 275 290 235 212 204 218 238 254 250 245 242 241 242 246 245 244 237 215 202 199 196 194 185 183 187 195 189 197 182 177 184 184 185 182 181 182 182 182 181 176 180 182 183 185 187 189 189 193 194 188 182 183 177 164 168 174 167 175 173 172 170
172 210 196 210 210 191 213 226 151 168 194 232 233 157 200 210 228 220 173 211 234 2 281 178 97 300 263 255 189 190 224 235 243 248 243 239 239 240 246 252 241 228 214 194 195 199 193 190 194 193 191 199 181 178 185 186 185 183 179 179 180 185 183 183 181 183 188 189 187 188 186 194 201 191 181 170 162 166 166 168 167 172 173 174 176 173
302 180 207 177 159 217 218 40 165 174 215 258 116 78 71 60 60 62 59 23 330 26 268 165 163 217 281 262 162 195 202 212 228 235 238 233 232 234 241 250 254 235 216 206 205 196 195 194 195 196 188 178 191 186 184 180 177 182 176 181 183 189 187 185 185 187 189 190 185 190 193 193 189 176 160 165 169 171 169 174 176 175 175 177 174 176
229 311 172 138 208 211 128 139 111 252 201 137 75 67 7 29 30 22 72 94 17 260 258 159 191 193 268 286 160 117 215 204 218 231 245 245 243 245 241 242 251 244 213 209 207 202 196 190 191 169 183 191 181 184 181 183 183 180 182 184 187 192 186 187 188 186 190 190 191 195 193 192 186 180 169 169 178 174 174 180 179 178 180 176 179 171
257 81 182 254 102 85 110 91 347 113 128 111 104 118 28 328 19 35 344 49 189 269 195 179 182 183 229 324 285 224 351 214 187 212 227 237 240 240 238 236 240 237 214 199 185 184 170 168 179 183 195 186 186 179 189 189 183 186 187 184 190 191 192 189 188 189 192 191 197 198 194 194 190 180 181 183 183 183 183 181 179 176 169 180 173 174
257 231 206 92 224 152 143 106 316 12 22 118 88 65 188 265 28 325 31 302 197 242 221 212 174 311 239 248 306 277 263 248 240 215 219 228 240 244 247 237 235 231 195 178 186 170 175 183 183 194 197 182 187 195 190 188 188 188 189 190 190 198 193 191 188 191 192 193 198 197 196 196 187 189 189 189 187 185 184 180 175 172 179 171 174 185
274 284 168 225 22 221 132 189 225 325 214 134 158 159 131 254 218 259 255 239 312 274 231 196 168 237 281 300 214 248 252 230 211 221 225 223 228 239 241 238 229 217 196 189 178 180 186 189 193 195 189 193 195 192 189 189 188 190 193 194 196 202 192 191 191 194 193 199 200 197 196 193 189 193 192 193 188 186 186 180 180 179 179 179 185 180
295 301 222 135 236 181 184 203 204 204 153 195 128 153 196 173 145 222 229 248 245 256 284 214 111 232 12 237 227 209 230 235 222 217 222 224 230 236 243 274 254 219 206 180 181 189 192 196 193 191 193 195 196 193 190 189 193 189 197 197 201 198 194 193 197 194 198 200 199 198 198 193 192 194 193 196 191 183 183 183 180 183 179 181 182 183
219 241 264 180 244 150 186 216 197 90 65 202 160 70 59 224 166 227 231 241 279 345 300 187 213 206 237 233 243 270 302 286 236 231 226 242 246 252 255 245 229 203 191 187 193 202 205 198 193 193 193 196 194 191 192 194 192 194 201 200 201 199 196 195 194 198 200 199 196 197 196 198 193 193 192 193 192 190 186 181 181 182 180 180 170 170
312 256 295 175 25 178 193 37 199 152 219 222 112 190 216 151 191 261 338 296 116 353 263 153 278 270 317 282 237 244 238 246 249 247 249 246 248 243 241 243 228 200 190 194 202 202 203 198 203 200 196 192 189 189 196 197 194 198 198 197 202 204 198 198 199 202 200 197 192 199 199 196 196 193 193 193 189 186 183 180 182 178 176 164 165 164
229 255 47 158 234 287 174 12 20 328 141 104 193 233 70 90 123 135 212 327 225 218 270 268 252 289 342 287 5 53 340 270 268 248 235 235 234 235 233 234 210 201 201 205 208 209 202 199 201 200 202 198 195 197 200 202 201 201 198 199 202 200 199 202 199 199 197 197 197 196 197 200 201 199 196 187 183 178 172 177 172 163 161 173 167 163
212 265 234 213 95 288 2 123 321 333 40 152 196 265 134 252 247 247 95 229 249 246 258 269 282 258 243 266 299 309 280 247 231 232 233 237 241 240 243 243 231 231 205 205 217 213 210 208 205 198 202 204 204 203 205 206 197 198 203 206 204 203 204 202 198 199 200 200 202 198 198 197 199 200 198 187 174 170 176 176 174 172 170 154 159 157
62 248 266 280 157 101 31 120 218 187 286 57 40 357 277 105 180 152 197 176 180 250 255 264 273 274 252 227 257 225 247 233 241 238 238 238 238 240 244 239 228 217 209 208 213 214 212 210 205 204 204 199 200 200 200 193 192 204 208 204 208 212 209 206 203 199 199 202 199 198 194 196 196 194 193 187 176 177 180 176 169 165 161 168 158 164
245 177 247 143 304 19 233 186 198 167 185 215 213 273 317 252 228 122 300 176 215 241 232 263 266 266 257 196 99 278 223 214 224 226 230 235 236 242 242 238 226 215 215 215 212 215 216 216 219 217 216 217 225 212 186 190 200 207 199 204 206 204 201 203 207 201 206 199 200 195 194 195 189 189 183 182 184 178 176 172 171 171 166 151 169 162
291 197 247 57 287 222 258 157 188 190 191 188 188 209 200 184 196 234 253 209 253 236 238 239 252 264 271 109 316 108 251 227 239 223 233 236 235 235 244 245 240 235 230 220 221 223 220 214 213 223 224 194 183 204 208 207 197 194 200 205 203 203 206 206 207 203 205 199 198 195 195 189 186 181 174 180 183 183 176 173 174 166 158 169 167 167
183 218 299 247 222 243 263 279 228 222 212 207 190 218 201 197 188 218 256 240 281 245 266 255 271 242 275 274 289 288 296 241 233 224 234 247 242 234 230 229 224 216 221 221 222 220 217 217 213 201 199 200 201 203 202 196 198 204 206 202 202 201 208 206 206 204 202 197 194 195 188 177 177 176 178 179 183 187 181 176 169 167 167 168 165 169
54 245 255 268 286 315 303 79 47 68 142 343 312 316 133 214 200 239 246 247 252 255 250 247 241 257 252 275 281 289 293 276 254 213 230 236 239 241 241 231 215 226 240 238 233 231 227 221 213 173 196 209 214 214 209 205 206 207 204 202 200 205 210 208 206 200 197 200 199 185 172 179 176 173 179 185 187 188 185 176 170 168 167 165 161 167
321 251 191 252 265 299 321 314 257 75 65 173 186 224 212 228 254 261 304 67 260 234 255 259 262 263 267 306 313 302 305 302 284 276 270 268 262 263 271 271 254 243 247 252 244 238 234 227 203 205 205 206 211 213 209 207 206 204 208 200 201 209 209 207 200 195 198 198 192 181 177 178 177 181 183 187 186 188 180 178 170 169 166 160 165 165
226 190 170 190 217 229 231 221 235 238 211 221 236 231 215 197 217 229 253 239 252 236 239 247 263 254 270 302 302 293 290 288 278 253 248 241 244 262 264 258 264 263 253 247 244 243 233 224 221 219 220 220 220 215 214 211 209 208 206 205 205 206 198 201 195 201 191 187 189 190 182 180 181 186 188 187 184 180 176 172 172 168 166 165 163 161
202 151 198 221 218 228 225 233 52 91 54 235 246 216 234 219 201 211 227 248 250 253 246 241 252 264 264 274 272 276 275 273 276 277 264 259 266 258 244 252 254 245 236 234 231 232 241 251 240 227 224 221 218 214 214 210 209 208 207 209 203 202 195 193 186 188 190 189 195 191 189 182 187 188 187 184 179 170 169 172 170 169 168 165 160 162
127 211 216 223 230 235 244 250 252 256 251 250 244 243 237 234 232 229 220 237 224 246 254 234 245 250 250 248 253 260 267 271 272 270 268 263 252 257 264 241 238 243 245 250 259 251 241 238 238 233 230 225 225 221 221 217 212 208 204 204 201 195 191 188 186 187 189 188 194 196 194 191 186 184 182 174 165 167 169 165 167 169 162 159 165 169
190 227 223 226 238 231 238 242 245 246 240 241 243 246 247 243 239 234 235 236 234 235 250 249 245 249 247 241 247 251 256 263 266 272 273 270 270 262 255 250 248 246 242 221 235 236 236 237 237 233 230 227 227 226 223 219 219 216 217 216 198 190 194 182 182 187 188 191 196 199 196 183 176 173 166 164 163 165 167 167 165 162 161 165 166 166
157 234 226 218 237 228 231 232 234 239 241 242 239 243 243 244 245 236 241 239 238 246 254 260 257 254 252 250 243 247 251 260 269 276 279 273 265 262 260 251 251 253 225 230 231 230 229 232 234 237 234 235 229 227 225 220 216 210 209 206 197 194 191 171 187 184 188 192 198 195 184 176 168 166 162 163 168 167 164 163 162 161 161 164 162 157
202 224 191 229 239 233 231 230 233 231 235 240 238 240 240 246 248 245 248 251 260 261 258 255 252 256 253 251 254 258 260 267 271 272 270 268 266 265 268 266 263 267 244 226 232 232 231 232 238 240 239 239 235 228 225 220 216 212 210 207 198 194 184 181 184 189 189 195 191 180 172 166 167 162 169 169 163 163 163 163 161 161 162 161 161 163
194 253 217 230 239 238 226 230 232 231 235 236 241 241 245 243 245 244 246 241 241 249 249 251 251 253 253 250 252 256 262 260 260 259 262 266 270 272 273 277 273 245 242 232 230 231 232 233 231 232 234 236 235 232 227 224 218 205 211 204 198 191 176 182 186 188 192 187 174 173 171 170 164 168 170 165 169 166 165 159 160 163 163 160 160 163
187 203 221 228 245 233 220 226 230 235 240 236 229 234 239 240 241 246 243 243 239 242 250 249 247 241 248 248 254 252 249 251 253 255 259 260 267 281 283 274 268 247 239 233 227 227 229 227 226 227 232 234 234 231 227 221 211 208 211 198 199 167 174 184 186 185 182 179 176 175 172 167 169 170 169 172 165 162 159 160 162 163 163 169 166 156
225 233 241 216 247 249 218 236 234 241 230 225 202 217 220 233 236 240 242 241 243 233 242 234 247 250 254 250 246 248 249 248 246 248 251 264 278 274 271 268 264 247 239 237 227 224 228 228 230 233 234 235 232 224 225 214 209 215 206 192 168 172 181 179 184 180 181 176 178 174 172 170 169 172 171 165 162 162 163 165 170 168 165 155 155 163
224 215 237 219 249 247 237 239 239 228 240 230 208 207 214 225 232 238 242 238 243 245 249 252 249 247 247 246 246 247 250 254 257 260 267 258 252 263 271 277 276 245 237 235 234 227 229 230 233 238 242 241 234 229 225 227 218 212 156 160 172 180 174 181 177 179 178 179 178 171 172 172 171 169 166 165 163 164 167 169 165 164 166 166 168 170
242 233 239 237 236 262 231 221 244 242 123 286 188 200 210 224 230 245 257 256 256 250 249 250 249 248 247 249 251 253 253 256 265 272 277 274 274 283 287 284 280 277 266 259 256 248 234 232 231 229 234 233 226 228 212 222 204 177 185 167 173 174 178 175 177 181 177 180 179 177 174 169 169 167 165 166 166 168 170 172 171 169 167 165 168 150
228 236 222 247 200 239 236 230 243 272 272 183 161 216 189 215 214 222 249 248 241 249 250 255 256 258 257 256 257 261 265 269 270 279 285 345 358 357 349 334 319 308 299 286 264 255 248 235 226 226 227 232 219 218 220 213 167 169 152 165 173 171 174 174 181 185 185 184 176 174 172 171 168 168 168 169 169 173 174 172 171 170 165 165 170 161
222 233 226 242 222 218 249 252 257 245 244 245 231 221 211 211 213 223 229 261 20 7 8 340 313 317 330 345 349 325 299 290 278 276 18 359 358 350 343 346 348 344 337 324 313 302 284 268 242 239 229 235 235 224 209 165 160 154 164 169 168 168 177 181 191 187 182 181 176 174 171 171 169 170 172 173 178 178 176 173 171 173 172 171 168 171
230 236 249 247 276 243 243 248 243 249 260 111 264 235 229 222 224 241 280 267 30 1 21 31 32 27 22 7 356 2 26 18 348 339 340 349 337 337 339 335 343 341 338 343 340 331 318 310 297 268 252 245 245 234 152 154 152 155 170 173 172 175 176 192 191 183 186 185 176 172 171 172 173 175 176 181 182 176 174 176 177 172 171 174 169 168
268 245 239 239 234 240 256 261 265 251 313 2 344 345 322 300 268 7 260 212 21 17 19 22 27 24 14 3 357 9 20 357 334 322 324 320 322 318 319 328 333 336 333 335 338 335 322 325 334 317 291 249 248 158 153 152 160 169 168 172 160 171 193 197 198 195 181 166 168 171 170 173 175 177 179 182 177 178 177 169 163 170 171 170 166 161
283 267 237 260 257 256 255 260 268 278 32 12 348 340 332 311 69 214 240 358 337 356 18 12 12 5 2 353 9 349 333 305 289 293 301 304 311 317 321 324 322 321 322 328 328 333 340 338 340 323 320 324 333 126 138 148 153 176 172 161 172 192 203 202 181 163 169 163 163 169 175 175 179 179 181 177 173 167 163 170 169 164 169 166 164 153
326 300 272 247 243 244 253 256 255 273 96 4 350 7 353 332 257 8 326 295 311 358 357 5 350 349 342 338 328 319 301 297 290 292 299 305 308 307 313 316 320 322 323 323 323 332 334 332 333 326 338 3 12 43 140 149 172 179 164 174 195 208 204 140 159 160 160 169 174 173 173 174 174 171 166 162 159 167 173 171 171 171 166 161 159 160
288 307 298 294 301 292 262 262 253 245 38 24 346 6 39 51 288 289 298 311 46 3 341 334 332 333 338 323 318 304 301 302 301 301 303 308 313 316 318 320 320 321 320 323 325 325 331 328 324 322 317 319 240 153 185 167 182 178 177 201 224 192 133 161 152 161 165 166 171 175 174 173 170 170 169 170 170 166 164 160 165 170 168 162 161 160
312 288 280 270 319 289 288 267 234 47 320 342 31 340 321 294 271 284 279 319 330 337 333 318 320 322 324 319 314 311 307 307 307 309 310 310 313 315 314 315 314 316 316 309 306 307 322 318 314 312 316 270 181 191 189 191 193 194 195 226 176 143 148 150 162 156 166 172 174 170 173 171 169 168 168 167 164 165 161 165 167 168 171 169 163 161
173 174 237 268 316 327 273 312 312 319 359 195 48 297 302 300 279 257 291 311 332 323 315 316 306 311 316 308 302 303 306 308 310 314 317 316 317 317 318 319 321 319 318 318 317 320 318 309 305 306 305 292 231 225 208 201 200 198 221 231 138 169 166 162 159 165 169 173 172 172 168 163 167 169 167 167 166 166 166 164 164 168 175 168 169 166
316 294 306 293 266 270 260 256 285 304 312 309 303 312 314 304 197 199 286 308 289 285 293 289 307 308 312 313 312 309 308 310 315 318 317 316 314 313 314 318 321 324 322 323 324 321 316 312 309 307 303 302 292 255 269 261 241 220 236 105 149 149 159 156 163 172 177 170 170 168 159 160 162 164 168 169 176 174 171 168 170 171 171 172 172 172
301 323 304 282 304 313 287 320 293 301 304 305 305 317 241 219 214 259 308 303 301 298 305 311 317 327 322 331 333 323 318 320 319 317 319 320 321 318 318 318 316 318 323 321 318 319 318 318 312 308 305 301 295 241 243 227 231 237 235 163 152 154 155 164 170 170 167 172 167 161 162 166 167 165 169 175 175 175 171 173 174 172 166 162 159 154
285 333 306 280 280 263 280 293 303 299 279 276 305 313 313 278 297 326 335 325 334 345 337 346 348 339 331 327 319 315 311 311 315 316 314 313 311 310 308 307 308 308 309 308 308 311 310 308 305 301 297 290 287 265 242 238 239 233 207 166 168 161 162 170 177 177 177 172 169 169 173 173 168 167 172 179 177 174 174 180 181 175 176 171 164 153
264 319 268 288 286 291 287 279 261 271 293 296 293 302 302 317 15 8 354 1 353 355 346 343 338 319 321 311 310 308 304 308 308 308 307 307 306 304 303 302 302 301 304 309 309 308 305 304 301 297 290 285 281 272 243 242 239 227 207 192 175 169 172 182 180 173 167 167 165 174 177 177 176 179 174 176 182 186 182 178 182 177 91 174 171 171
273 255 264 288 288 275 274 287 307 302 296 300 300 289 330 33 43 349 339 355 347 343 335 327 318 311 306 311 313 315 313 310 312 312 307 303 303 304 304 302 300 301 302 304 308 307 302 297 293 292 289 284 281 267 245 245 237 217 212 187 179 176 181 179 173 172 177 174 175 173 174 179 180 181 180 177 177 165 163 184 184 177 176 172 180 185
239 255 266 263 261 274 271 267 275 282 287 270 281 318 99 82 12 348 330 318 312 315 317 320 315 317 314 315 323 314 308 308 307 309 306 305 302 303 302 303 306 306 304 304 305 303 297 295 294 291 286 283 282 274 261 252 236 211 204 193 186 184 186 172 176 182 178 177 188 185 180 179 180 183 181 179 172 171 160 147 166 174 181 172 170 173